DW1824 Weather Reports


time (UTC)temp
C
wind
direction
speed
KPH
gust
KPH
rain 1hr
cm
rain 24hr
cm
rain mn
cm
humidity
%
barometer
mb
20260902184344 35 284 1.6 12.9 0.00 0.00 0.00 52 1013.5
20260902183328 35 181 1.6 6.4 0.00 0.00 0.00 52 1013.7
20260902182333 34 193 0.0 8.0 0.00 0.00 0.00 55 1013.9
20260902181338 34 237 3.2 9.7 0.00 0.00 0.00 55 1014.0
20260902180324 34 210 3.2 6.4 0.00 0.00 0.00 56 1014.1
20260902175350 34 203 1.6 11.3 0.00 0.00 0.00 56 1014.4
20260902174353 34 193 3.2 6.4 0.00 0.00 0.00 58 1014.7
20260902173334 34 189 3.2 9.7 0.00 0.00 0.00 55 1014.8
20260902172342 33 210 3.2 9.7 0.00 0.00 0.00 56 1015.0
20260902171349 33 195 3.2 14.5 0.00 0.00 0.00 58 1015.2
20260902170351 33 166 4.8 12.9 0.00 0.00 0.00 58 1015.2
20260902165337 32 216 3.2 12.9 0.00 0.00 0.00 61 1015.4
20260902164342 33 168 3.2 8.0 0.00 0.00 0.00 64 1015.4
20260902163347 32 176 3.2 14.5 0.00 0.00 0.00 63 1015.5
20260902162332 32 251 1.6 8.0 0.00 0.00 0.00 65 1015.6
20260902161337 31 261 3.2 11.3 0.00 0.00 0.00 67 1015.6
20260902160403 31 214 3.2 6.4 0.00 0.00 0.00 66 1015.8
20260902155329 31 219 3.2 11.3 0.00 0.00 0.00 68 1016.0
20260902154333 31 248 4.8 9.7 0.00 0.00 0.00 70 1015.8
20260902153337 31 212 3.2 8.0 0.00 0.00 0.00 71 1015.8
20260902152342 30 243 3.2 9.7 0.00 0.00 0.00 74 1015.8
20260902151345 30 268 3.2 8.0 0.00 0.00 0.00 75 1015.7
20260902150330 30 223 0.0 0.0 0.00 0.00 0.00 77 1015.7
20260902145335 29 249 0.0 0.0 0.00 0.00 0.00 80 1015.6
20260902144340 28 239 0.0 0.0 0.00 0.00 0.00 82 1015.7
20260902143329 28 239 0.0 6.4 0.00 0.00 0.00 85 1015.5
20260902142334 27 252 1.6 4.8 0.00 0.00 0.00 87 1015.6
20260902141339 27 245 1.6 3.2 0.00 0.00 0.00 87 1015.7
20260902140404 27 211 0.0 3.2 0.00 0.00 0.00 89 1015.8
20260902135328 27 243 0.0 3.2 0.00 0.00 0.00 89 1015.8
20260902134334 26 224 0.0 1.6 0.00 0.00 0.00 89 1015.8
20260902133340 26 226 0.0 1.6 0.00 0.00 0.00 89 1015.7
20260902132329 26 238 0.0 3.2 0.00 0.00 0.00 89 1015.6
20260902131335 26 241 0.0 3.2 0.00 0.00 0.00 89 1015.4
20260902130339 26 261 0.0 3.2 0.00 0.00 0.00 89 1015.2
20260902125403 26 199 1.6 4.8 0.00 0.00 0.00 90 1015.0
20260902124328 26 270 0.0 6.4 0.00 0.00 0.00 90 1014.8
20260902123334 26 203 0.0 4.8 0.00 0.00 0.00 91 1014.6
20260902122339 26 190 0.0 4.8 0.00 0.00 0.00 91 1014.3
20260902121328 26 241 0.0 3.2 0.00 0.00 0.00 91 1014.3
20260902120334 26 242 0.0 0.0 0.00 0.00 0.00 91 1014.4
20260902115340 26 224 0.0 0.0 0.00 0.00 0.00 91 1014.4
20260902114327 26 249 0.0 3.2 0.00 0.00 0.00 90 1014.4
20260902113329 26 249 0.0 1.6 0.00 0.00 0.00 90 1014.5
20260902112335 26 255 0.0 3.2 0.00 0.00 0.00 90 1014.4
20260902111339 26 270 0.0 3.2 0.00 0.00 0.00 90 1014.4
20260902110328 26 253 0.0 1.6 0.00 0.00 0.00 90 1014.3
20260902105333 26 233 0.0 1.6 0.00 0.00 0.00 90 1014.3
20260902104338 26 218 0.0 4.8 0.00 0.00 0.00 89 1014.2
20260902103343 26 150 0.0 4.8 0.00 0.00 0.00 89 1014.2
20260902102328 26 257 0.0 4.8 0.00 0.00 0.00 89 1014.2
20260902101333 26 234 0.0 0.0 0.00 0.00 0.00 88 1014.1
20260902100359 26 251 0.0 3.2 0.00 0.00 0.00 88 1014.1
20260902095327 26 215 0.0 1.6 0.00 0.00 0.00 88 1014.1
20260902094333 26 213 0.0 6.4 0.00 0.00 0.00 88 1014.2
20260902093338 26 197 0.0 4.8 0.00 0.00 0.00 87 1014.1
20260902092343 26 239 1.6 4.8 0.00 0.00 0.00 87 1014.0
20260902091327 26 168 0.0 4.8 0.00 0.00 0.00 87 1014.1
20260902090332 26 221 0.0 6.4 0.00 0.00 0.00 87 1014.1
20260902085359 26 220 0.0 4.8 0.00 0.00 0.00 87 1014.0
20260902084326 26 247 0.0 4.8 0.00 0.00 0.00 87 1014.1
20260902083329 26 195 0.0 6.4 0.00 0.00 0.00 87 1014.1
20260902082335 26 257 0.0 1.6 0.00 0.00 0.00 87 1014.1
20260902081339 26 280 0.0 3.2 0.00 0.00 0.00 87 1014.1
20260902080341 26 281 0.0 0.0 0.00 0.00 0.00 86 1014.2
20260902075326 26 243 0.0 1.6 0.00 0.00 0.00 87 1014.2
20260902074353 26 262 0.0 1.6 0.00 0.00 0.00 87 1014.2
20260902073354 26 222 0.0 1.6 0.00 0.00 0.00 86 1014.3
20260902072359 26 222 0.0 0.0 0.00 0.00 0.00 86 1014.3
20260902071327 26 222 0.0 1.6 0.00 0.00 0.00 86 1014.4
20260902070328 26 235 0.0 1.6 0.00 0.00 0.00 85 1014.3
20260902065354 26 219 0.0 3.2 0.00 0.00 0.00 86 1014.4
20260902064339 26 234 0.0 3.2 0.00 0.00 0.00 86 1014.3
20260902063340 25 214 0.0 1.6 0.00 0.00 0.00 85 1014.4
20260902062325 25 343 0.0 0.0 0.00 0.00 0.00 86 1014.4
20260902061332 25 343 0.0 0.0 0.00 0.00 0.00 88 1014.3
20260902060355 25 343 0.0 0.0 0.00 0.00 0.00 88 1014.4
20260902055344 25 343 0.0 0.0 0.00 0.00 0.00 88 1014.5
20260902054330 25 343 0.0 0.0 0.00 0.00 0.00 87 1014.5
20260902053333 25 343 0.0 0.0 0.00 0.00 0.00 87 1014.4
20260902052338 25 343 0.0 0.0 0.00 0.00 0.00 87 1014.5
20260902051343 26 343 0.0 0.0 0.00 0.00 0.00 86 1014.4
20260902050326 26 343 0.0 0.0 0.00 0.00 0.00 86 1014.4
20260902045330 26 343 0.0 0.0 0.00 0.00 0.00 86 1014.3
20260902044339 26 343 0.0 0.0 0.00 0.00 0.00 85 1014.3
20260902043400 26 343 0.0 0.0 0.00 0.00 0.00 85 1014.4
20260902042326 26 343 0.0 0.0 0.00 0.00 0.00 85 1014.5
20260902041331 26 343 0.0 0.0 0.00 0.00 0.00 84 1014.7
20260902040336 26 343 0.0 0.0 0.00 0.00 0.00 83 1014.8
20260902035341 26 343 0.0 0.0 0.00 0.00 0.00 82 1014.6
20260902034324 26 343 0.0 0.0 0.00 0.00 0.00 82 1014.5
20260902033327 26 343 0.0 0.0 0.00 0.00 0.00 82 1014.4
20260902032339 26 343 0.0 0.0 0.00 0.00 0.00 80 1014.3
20260902031345 27 343 0.0 0.0 0.00 0.00 0.00 81 1014.3
20260902030328 27 343 0.0 0.0 0.00 0.00 0.00 80 1014.2
20260902025333 27 343 0.0 0.0 0.00 0.00 0.00 79 1014.2
20260902024339 27 343 0.0 0.0 0.00 0.00 0.00 79 1014.2
20260902023403 27 343 0.0 1.6 0.00 0.00 0.00 80 1014.2
20260902022326 27 345 1.6 3.2 0.00 0.00 0.00 77 1014.0
20260902021336 28 46 0.0 1.6 0.00 0.00 0.00 76 1013.9
20260902020325 28 46 0.0 0.0 0.00 0.00 0.00 75 1013.7
20260902015330 28 47 0.0 0.0 0.00 0.00 0.00 71 1013.4
20260902014334 28 46 0.0 0.0 0.00 0.00 0.00 71 1013.3
20260902013342 28 46 0.0 0.0 0.00 0.00 0.00 71 1013.2
20260902012347 29 46 0.0 0.0 0.00 0.00 0.00 70 1013.1
20260902011353 29 114 0.0 0.0 0.00 0.00 0.00 70 1013.2
20260902010336 29 114 0.0 0.0 0.00 0.00 0.00 70 1013.1
20260902005342 29 114 0.0 1.6 0.00 0.00 0.00 69 1013.0
20260902004347 30 87 0.0 1.6 0.00 0.00 0.00 69 1012.9
20260902003329 30 87 0.0 1.6 0.00 0.00 0.00 68 1012.9
20260902002354 30 10 0.0 4.8 0.00 0.00 0.00 67 1013.0
20260902001339 30 41 0.0 1.6 0.00 0.00 0.00 67 1013.0
20260902000341 31 66 1.6 6.4 0.00 0.00 0.00 65 1012.9
20260901235330 31 87 3.2 4.8 0.00 0.00 0.00 60 1012.9
20260901234336 32 109 1.6 3.2 0.00 0.00 0.00 56 1012.6
20260901233337 32 103 0.0 3.2 0.00 0.00 0.00 55 1012.8
20260901232342 32 116 1.6 3.2 0.00 0.00 0.00 53 1012.7
20260901231325 32 56 0.0 3.2 0.00 0.00 0.00 52 1012.7
20260901230329 32 152 0.0 1.6 0.00 0.00 0.00 54 1012.7
20260901225355 32 89 0.0 1.6 0.00 0.00 0.00 55 1012.8
20260901224323 32 86 0.0 4.8 0.00 0.00 0.00 55 1012.7
20260901223327 32 136 0.0 1.6 0.00 0.00 0.00 54 1012.9
20260901222332 32 116 1.6 6.4 0.00 0.00 0.00 55 1012.9
20260901221335 32 57 0.0 8.0 0.00 0.00 0.00 57 1013.0
20260901220340 33 360 0.0 1.6 0.00 0.00 0.00 56 1013.1
20260901215326 33 311 0.0 3.2 0.00 0.00 0.00 56 1013.1
20260901214331 33 14 0.0 3.2 0.00 0.00 0.00 57 1013.1
20260901213337 33 58 1.6 6.4 0.00 0.00 0.00 55 1013.2
20260901212342 33 354 0.0 6.4 0.00 0.00 0.00 54 1013.1
20260901211326 33 345 1.6 8.0 0.00 0.00 0.00 55 1013.2
20260901210332 33 133 0.0 4.8 0.00 0.00 0.00 54 1013.2
20260901205338 33 14 3.2 9.7 0.00 0.00 0.00 54 1013.4
20260901204323 33 352 0.0 6.4 0.00 0.00 0.00 57 1013.6
20260901203326 33 18 0.0 3.2 0.00 0.00 0.00 56 1013.7
20260901202336 33 101 0.0 3.2 0.00 0.00 0.00 56 1013.8
20260901201342 33 350 1.6 9.7 0.00 0.00 0.00 56 1014.0
20260901200325 33 16 0.0 6.4 0.00 0.00 0.00 56 1014.2
20260901195329 33 353 0.0 3.2 0.00 0.00 0.00 57 1014.3
20260901194335 33 112 3.2 8.0 0.00 0.00 0.00 59 1014.4
20260901193337 33 345 0.0 4.8 0.00 0.00 0.00 60 1014.4
20260901192343 33 97 0.0 3.2 0.00 0.00 0.00 60 1014.4
20260901191333 33 60 3.2 11.3 0.00 0.00 0.00 61 1014.4
20260901190336 33 120 1.6 6.4 0.00 0.00 0.00 62 1014.6
20260901185338 33 46 3.2 6.4 0.00 0.00 0.00 59 1014.6